Flag for U.S.A. Weather past 2 weeks in Memphis, Tennessee, U.S.A.

Now
75 °F

Passing clouds.


Feels Like: 78 °F
Forecast: 58 / 73 °F
Wind: 7 mph from North

Location: Memphis International Airport

Current Time: Sep 21, 2014 at 10:20:02 PM

Latest Report: Sep 21, 2014 at 9:54 PM


Visibility: 10 mi

Pressure: 30.05 "Hg

Humidity: 43%

Dew point: 51 °F

Location of MemphisLocation

Historic Weather in Memphis — Graph

°F

Memphis temperature yesterday

Maximum temperature yesterday: 90 °F (at 2:54 PM)
Minimum temperature yesterday: 72 °F (at 6:54 AM)
Average temperature yesterday: 79 °F

Past Weeks' High & Low Weather Summary

 TemperatureHumidityPressure
High93 °F (Sep 10, 3:54 PM)94% (Sep 11, 7:04 AM)30.27 "Hg (Sep 11, 7:04 AM)
Low58 °F (Sep 14, 4:54 AM)42% (Sep 20, 4:54 PM)29.81 "Hg (Sep 10, 5:54 PM)
Average74 °F71%30.04 "Hg
* Reported Sep 6 8:54 PM — Sep 21 8:54 PM, Memphis, Weather by CustomWeather, © 2014

Note: Actual official high and low records may vary slightly from our data, if they occured in-between our weather recording intervals... More about our weather records

Advertising

Memphis weather history for previous 24 hours

 ConditionsComfort  
Time TempWeatherWind HumidityBarometerVisibility
8:54 PM
Sep 21
77 °FPassing clouds.13 mph44%30.03 "Hg10 mi
7:54 PM81 °FPartly cloudy.18 mph51%30.00 "Hg10 mi
6:54 PM82 °FScattered clouds.8 mph58%29.97 "Hg10 mi
5:54 PM85 °FScattered clouds.12 mph51%29.96 "Hg10 mi
4:54 PM86 °FBroken clouds.13 mph57%29.96 "Hg10 mi
3:54 PM89 °FBroken clouds.12 mph52%29.95 "Hg10 mi
2:54 PM88 °FBroken clouds.14 mph54%29.95 "Hg10 mi
1:54 PM89 °FBroken clouds.8 mph52%29.97 "Hg10 mi
12:54 PM88 °FBroken clouds.13 mph52%30.00 "Hg10 mi
11:54 AM87 °FScattered clouds.7 mph55%30.01 "Hg10 mi
10:54 AM85 °FScattered clouds.8 mph59%30.03 "Hg10 mi
9:54 AM81 °FScattered clouds.6 mph65%30.03 "Hg10 mi
8:54 AM78 °FScattered clouds.6 mph71%30.03 "Hg10 mi
7:54 AM74 °FPassing clouds.No wind79%30.01 "Hg10 mi
6:54 AM72 °FPassing clouds.5 mph81%29.99 "Hg10 mi
5:54 AM71 °FClear.5 mph84%29.98 "Hg10 mi
4:54 AM72 °FClear.6 mph81%29.98 "Hg10 mi
3:54 AM72 °FClear.6 mph84%29.98 "Hg10 mi
2:54 AM73 °FClear.No wind79%29.98 "Hg10 mi
1:54 AM74 °FClear.6 mph76%29.99 "Hg10 mi
12:54 AM74 °FClear.3 mph79%30.00 "Hg10 mi
11:54 PM
Sep 20
76 °FClear.8 mph74%30.00 "Hg10 mi
10:54 PM75 °FPassing clouds.5 mph76%30.00 "Hg10 mi
Weather by CustomWeather, © 2014

See weather overviewHow to use our weather pages